{"data":{"norad_id":62220,"epoch":"2026-09-21T13:34:55.050816Z","epoch_age_seconds":86119,"freshness":"FRESH","line1":"1 62220U 24231C   26264.56591494  .00120984  00000+0  98680-3 0  9994","line2":"2 62220  53.1565 215.8460 0001224  69.2203 290.8946 15.69762960104178","mean_motion":15.6976296,"eccentricity":0.0001224,"inclination_deg":53.1565,"raan_deg":215.846,"arg_perigee_deg":69.2203,"mean_anomaly_deg":290.8946,"bstar":0.0009868,"rev_number":10417,"period_min":91.73359524294,"perigee_km":358.75050745892,"apogee_km":360.39989940632,"semimajor_km":6737.7122034326,"source":"CELESTRAK","updated_at":"2026-09-22T09:00:49.544460Z"}}